Time,TemperatureF,DewpointF,PressureIn,WindDirection,WindDirectionDegrees,WindSpeedMPH,WindSpeedGustMPH,Humidity,HourlyPrecipIn,Conditions,Clouds,dailyrainin,SoftwareType,DateUTC
2013-03-29 00:13:00,-999.0,-99.9,30.30,North,-999,-999.0,-999.0,-999,-99.99,,,0.00,weatherlink.com 1.10,2013-03-29 05:13:00,
2013-03-29 00:28:00,-999.0,-99.9,30.31,North,-999,-999.0,-999.0,-999,-99.99,,,0.00,weatherlink.com 1.10,2013-03-29 05:28:00,
2013-03-29 00:43:00,-999.0,-99.9,30.31,North,-999,-999.0,-999.0,-999,-99.99,,,0.00,weatherlink.com 1.10,2013-03-29 05:43:00,
2013-03-29 00:58:00,-999.0,-99.9,30.31,North,-999,-999.0,-999.0,-999,-99.99,,,0.00,weatherlink.com 1.10,2013-03-29 05:58:00,
2013-03-29 01:14:00,-999.0,-99.9,30.30,North,-999,-999.0,-999.0,-999,-99.99,,,0.00,weatherlink.com 1.10,2013-03-29 06:14:00,
2013-03-29 01:29:00,-999.0,-99.9,30.31,North,-999,-999.0,-999.0,-999,-99.99,,,0.00,weatherlink.com 1.10,2013-03-29 06:29:00,
2013-03-29 01:44:00,-999.0,-99.9,30.30,North,-999,-999.0,-999.0,-999,-99.99,,,0.00,weatherlink.com 1.10,2013-03-29 06:44:00,
2013-03-29 01:59:00,-999.0,-99.9,30.30,North,-999,-999.0,-999.0,-999,-99.99,,,0.00,weatherlink.com 1.10,2013-03-29 06:59:00,
2013-03-29 02:14:00,-999.0,-99.9,30.28,North,-999,-999.0,-999.0,-999,-99.99,,,0.00,weatherlink.com 1.10,2013-03-29 07:14:00,
2013-03-29 02:29:00,-999.0,-99.9,30.29,North,-999,-999.0,-999.0,-999,-99.99,,,0.00,weatherlink.com 1.10,2013-03-29 07:29:00,
2013-03-29 02:44:00,-999.0,-99.9,30.29,North,-999,-999.0,-999.0,-999,-99.99,,,0.00,weatherlink.com 1.10,2013-03-29 07:44:00,
2013-03-29 02:59:00,-999.0,-99.9,30.29,North,-999,-999.0,-999.0,-999,-99.99,,,0.00,weatherlink.com 1.10,2013-03-29 07:59:00,
2013-03-29 03:14:00,-999.0,-99.9,30.29,North,-999,-999.0,-999.0,-999,-99.99,,,0.00,weatherlink.com 1.10,2013-03-29 08:14:00,
2013-03-29 03:29:00,-999.0,-99.9,30.29,North,-999,-999.0,-999.0,-999,-99.99,,,0.00,weatherlink.com 1.10,2013-03-29 08:29:00,
2013-03-29 03:44:00,-999.0,-99.9,30.28,North,-999,-999.0,-999.0,-999,-99.99,,,0.00,weatherlink.com 1.10,2013-03-29 08:44:00,
2013-03-29 03:59:00,-999.0,-99.9,30.28,North,-999,-999.0,-999.0,-999,-99.99,,,0.00,weatherlink.com 1.10,2013-03-29 08:59:00,
2013-03-29 04:15:00,-999.0,-99.9,30.28,North,-999,-999.0,-999.0,-999,-99.99,,,0.00,weatherlink.com 1.10,2013-03-29 09:15:00,
2013-03-29 04:30:00,-999.0,-99.9,30.28,North,-999,-999.0,-999.0,-999,-99.99,,,0.00,weatherlink.com 1.10,2013-03-29 09:30:00,
2013-03-29 04:45:00,-999.0,-99.9,30.28,North,-999,-999.0,-999.0,-999,-99.99,,,0.00,weatherlink.com 1.10,2013-03-29 09:45:00,
2013-03-29 05:00:00,-999.0,-99.9,30.27,North,-999,-999.0,-999.0,-999,-99.99,,,0.00,weatherlink.com 1.10,2013-03-29 10:00:00,
2013-03-29 05:15:00,-999.0,-99.9,30.27,North,-999,-999.0,-999.0,-999,-99.99,,,0.00,weatherlink.com 1.10,2013-03-29 10:15:00,
2013-03-29 05:30:00,-999.0,-99.9,30.27,North,-999,-999.0,-999.0,-999,-99.99,,,0.00,weatherlink.com 1.10,2013-03-29 10:30:00,
2013-03-29 05:45:00,-999.0,-99.9,30.27,North,-999,-999.0,-999.0,-999,-99.99,,,0.00,weatherlink.com 1.10,2013-03-29 10:45:00,
2013-03-29 06:00:00,-999.0,-99.9,30.27,North,-999,-999.0,-999.0,-999,-99.99,,,0.00,weatherlink.com 1.10,2013-03-29 11:00:00,
2013-03-29 06:15:00,-999.0,-99.9,30.28,North,-999,-999.0,-999.0,-999,-99.99,,,0.00,weatherlink.com 1.10,2013-03-29 11:15:00,
2013-03-29 06:30:00,-999.0,-99.9,30.28,North,-999,-999.0,-999.0,-999,-99.99,,,0.00,weatherlink.com 1.10,2013-03-29 11:30:00,
2013-03-29 06:45:00,-999.0,-99.9,30.29,North,-999,-999.0,-999.0,-999,-99.99,,,0.00,weatherlink.com 1.10,2013-03-29 11:45:00,
2013-03-29 07:01:00,-999.0,-99.9,30.29,North,-999,-999.0,-999.0,-999,-99.99,,,0.00,weatherlink.com 1.10,2013-03-29 12:01:00,
2013-03-29 07:15:00,-999.0,-99.9,30.30,North,-999,-999.0,-999.0,-999,-99.99,,,0.00,weatherlink.com 1.10,2013-03-29 12:15:00,
2013-03-29 07:31:00,-999.0,-99.9,30.30,North,-999,-999.0,-999.0,-999,-99.99,,,0.00,weatherlink.com 1.10,2013-03-29 12:31:00,
2013-03-29 08:00:00,-999.0,-99.9,30.30,North,-999,-999.0,-999.0,-999,-99.99,,,0.00,weatherlink.com 1.10,2013-03-29 13:00:00,
2013-03-29 08:16:00,-999.0,-99.9,30.31,North,-999,-999.0,-999.0,-999,-99.99,,,0.00,weatherlink.com 1.10,2013-03-29 13:16:00,
2013-03-29 08:31:00,-999.0,-99.9,30.31,North,-999,-999.0,-999.0,-999,-99.99,,,0.00,weatherlink.com 1.10,2013-03-29 13:31:00,
2013-03-29 08:46:00,-999.0,-99.9,30.31,North,-999,-999.0,-999.0,-999,-99.99,,,0.00,weatherlink.com 1.10,2013-03-29 13:46:00,
2013-03-29 09:02:00,-999.0,-99.9,30.32,North,-999,-999.0,-999.0,-999,-99.99,,,0.00,weatherlink.com 1.10,2013-03-29 14:02:00,
2013-03-29 09:16:00,-999.0,-99.9,30.31,North,-999,-999.0,-999.0,-999,-99.99,,,0.00,weatherlink.com 1.10,2013-03-29 14:16:00,
2013-03-29 09:31:00,-999.0,-99.9,30.31,North,-999,-999.0,-999.0,-999,-99.99,,,0.00,weatherlink.com 1.10,2013-03-29 14:31:00,
2013-03-29 09:46:00,43.0,32.0,30.31,SE,138,0.0,-999.0,65,-99.99,,,0.00,weatherlink.com 1.10,2013-03-29 14:46:00,
2013-03-29 10:02:00,43.5,32.0,30.31,SE,139,3.0,-999.0,65,-99.99,,,0.00,weatherlink.com 1.10,2013-03-29 15:02:00,
2013-03-29 10:31:00,45.2,33.0,30.31,SE,128,3.0,-999.0,63,-99.99,,,0.00,weatherlink.com 1.10,2013-03-29 15:31:00,
2013-03-29 10:46:00,45.5,34.0,30.31,SSE,159,0.0,-999.0,64,-99.99,,,0.00,weatherlink.com 1.10,2013-03-29 15:46:00,
2013-03-29 11:02:00,46.5,35.0,30.31,SE,140,1.0,-999.0,64,-99.99,,,0.00,weatherlink.com 1.10,2013-03-29 16:02:00,
2013-03-29 11:17:00,48.0,35.0,30.31,SE,138,0.0,-999.0,61,-99.99,,,0.00,weatherlink.com 1.10,2013-03-29 16:17:00,
2013-03-29 11:32:00,48.1,35.0,30.30,SE,128,3.0,-999.0,60,-99.99,,,0.00,weatherlink.com 1.10,2013-03-29 16:32:00,
2013-03-29 11:47:00,48.7,35.0,30.30,SE,142,3.0,-999.0,59,-99.99,,,0.00,weatherlink.com 1.10,2013-03-29 16:47:00,
2013-03-29 12:02:00,48.6,35.0,30.30,SSE,163,0.0,-999.0,59,-99.99,,,0.00,weatherlink.com 1.10,2013-03-29 17:02:00,
2013-03-29 12:17:00,49.6,35.0,30.29,SSE,163,0.0,-999.0,58,-99.99,,,0.00,weatherlink.com 1.10,2013-03-29 17:17:00,
2013-03-29 12:32:00,49.5,35.0,30.29,SSE,155,0.0,-999.0,58,-99.99,,,0.00,weatherlink.com 1.10,2013-03-29 17:32:00,
2013-03-29 12:47:00,50.5,35.0,30.28,SSE,150,0.0,-999.0,56,-99.99,,,0.00,weatherlink.com 1.10,2013-03-29 17:47:00,
2013-03-29 13:02:00,51.2,35.0,30.28,SE,135,2.0,-999.0,55,-99.99,,,0.00,weatherlink.com 1.10,2013-03-29 18:02:00,
2013-03-29 13:17:00,51.6,36.0,30.27,SE,132,0.0,-999.0,55,-99.99,,,0.00,weatherlink.com 1.10,2013-03-29 18:17:00,
2013-03-29 13:32:00,51.7,36.0,30.26,SE,139,0.0,-999.0,55,-99.99,,,0.00,weatherlink.com 1.10,2013-03-29 18:32:00,
2013-03-29 13:47:00,52.2,36.0,30.26,NNW,337,0.0,-999.0,55,-99.99,,,0.00,weatherlink.com 1.10,2013-03-29 18:47:00,
2013-03-29 14:02:00,52.8,36.0,30.25,NW,325,0.0,-999.0,54,-99.99,,,0.00,weatherlink.com 1.10,2013-03-29 19:02:00,
2013-03-29 14:17:00,52.7,36.0,30.25,NW,323,0.0,-999.0,54,-99.99,,,0.00,weatherlink.com 1.10,2013-03-29 19:17:00,
2013-03-29 14:32:00,53.2,37.0,30.25,NE,44,5.0,-999.0,54,-99.99,,,0.00,weatherlink.com 1.10,2013-03-29 19:32:00,
2013-03-29 14:47:00,53.1,36.0,30.24,SE,128,7.0,-999.0,53,-99.99,,,0.00,weatherlink.com 1.10,2013-03-29 19:47:00,
2013-03-29 15:02:00,53.8,36.0,30.23,NE,39,0.0,-999.0,51,-99.99,,,0.00,weatherlink.com 1.10,2013-03-29 20:02:00,
2013-03-29 15:17:00,53.9,34.0,30.22,NE,54,4.0,-999.0,48,-99.99,,,0.00,weatherlink.com 1.10,2013-03-29 20:17:00,
2013-03-29 15:32:00,53.1,35.0,30.22,North,9,0.0,-999.0,51,-99.99,,,0.00,weatherlink.com 1.10,2013-03-29 20:32:00,
2013-03-29 15:47:00,53.9,36.0,30.22,NW,321,0.0,-999.0,51,-99.99,,,0.00,weatherlink.com 1.10,2013-03-29 20:47:00,
2013-03-29 16:02:00,53.7,35.0,30.22,WNW,285,0.0,-999.0,50,-99.99,,,0.00,weatherlink.com 1.10,2013-03-29 21:02:00,
2013-03-29 16:17:00,53.1,35.0,30.21,NW,320,0.0,-999.0,50,-99.99,,,0.00,weatherlink.com 1.10,2013-03-29 21:17:00,
2013-03-29 16:32:00,53.7,35.0,30.21,NW,305,0.0,-999.0,49,-99.99,,,0.00,weatherlink.com 1.10,2013-03-29 21:32:00,
2013-03-29 16:47:00,53.9,35.0,30.21,WNW,292,2.0,-999.0,50,-99.99,,,0.00,weatherlink.com 1.10,2013-03-29 21:47:00,
2013-03-29 17:03:00,53.6,36.0,30.21,NW,322,5.0,-999.0,52,-99.99,,,0.00,weatherlink.com 1.10,2013-03-29 22:03:00,
2013-03-29 17:18:00,52.8,35.0,30.21,NE,46,1.0,-999.0,52,-99.99,,,0.00,weatherlink.com 1.10,2013-03-29 22:18:00,
2013-03-29 17:33:00,53.3,36.0,30.21,NW,326,0.0,-999.0,52,-99.99,,,0.00,weatherlink.com 1.10,2013-03-29 22:33:00,
2013-03-29 17:48:00,52.9,37.0,30.21,NNE,16,0.0,-999.0,55,-99.99,,,0.00,weatherlink.com 1.10,2013-03-29 22:48:00,
2013-03-29 18:02:00,52.6,37.0,30.21,NNE,23,2.0,-999.0,56,-99.99,,,0.00,weatherlink.com 1.10,2013-03-29 23:02:00,
2013-03-29 18:17:00,52.1,36.0,30.21,North,5,0.0,-999.0,55,-99.99,,,0.00,weatherlink.com 1.10,2013-03-29 23:17:00,
2013-03-29 18:32:00,51.8,36.0,30.21,North,5,0.0,-999.0,56,-99.99,,,0.00,weatherlink.com 1.10,2013-03-29 23:32:00,
2013-03-29 18:47:00,51.5,37.0,30.21,North,5,0.0,-999.0,57,-99.99,,,0.00,weatherlink.com 1.10,2013-03-29 23:47:00,
2013-03-29 19:02:00,51.2,36.0,30.20,North,5,0.0,-999.0,57,-99.99,,,0.00,weatherlink.com 1.10,2013-03-30 00:02:00,
2013-03-29 19:17:00,50.6,37.0,30.21,North,5,0.0,-999.0,59,-99.99,,,0.00,weatherlink.com 1.10,2013-03-30 00:17:00,
2013-03-29 19:32:00,50.0,37.0,30.20,North,5,0.0,-999.0,61,-99.99,,,0.00,weatherlink.com 1.10,2013-03-30 00:32:00,
2013-03-29 19:47:00,49.2,37.0,30.21,North,5,0.0,-999.0,62,-99.99,,,0.00,weatherlink.com 1.10,2013-03-30 00:47:00,
2013-03-29 20:03:00,48.3,37.0,30.21,North,5,0.0,-999.0,64,-99.99,,,0.00,weatherlink.com 1.10,2013-03-30 01:03:00,
2013-03-29 20:18:00,46.7,37.0,30.21,North,5,0.0,-999.0,69,-99.99,,,0.00,weatherlink.com 1.10,2013-03-30 01:18:00,
2013-03-29 20:33:00,45.3,37.0,30.22,North,5,0.0,-999.0,72,-99.99,,,0.00,weatherlink.com 1.10,2013-03-30 01:33:00,
2013-03-29 20:48:00,44.7,37.0,30.21,North,5,0.0,-999.0,74,-99.99,,,0.00,weatherlink.com 1.10,2013-03-30 01:48:00,
2013-03-29 21:03:00,44.3,37.0,30.22,North,5,0.0,-999.0,76,-99.99,,,0.00,weatherlink.com 1.10,2013-03-30 02:03:00,
2013-03-29 21:18:00,43.7,37.0,30.22,North,5,0.0,-999.0,76,-99.99,,,0.00,weatherlink.com 1.10,2013-03-30 02:18:00,
2013-03-29 21:33:00,43.2,36.0,30.23,North,5,0.0,-999.0,77,-99.99,,,0.00,weatherlink.com 1.10,2013-03-30 02:33:00,
2013-03-29 21:48:00,42.7,36.0,30.23,North,5,0.0,-999.0,78,-99.99,,,0.00,weatherlink.com 1.10,2013-03-30 02:48:00,
2013-03-29 22:03:00,42.7,36.0,30.23,North,5,0.0,-999.0,77,-99.99,,,0.00,weatherlink.com 1.10,2013-03-30 03:03:00,
2013-03-29 22:18:00,42.9,36.0,30.23,North,5,0.0,-999.0,78,-99.99,,,0.00,weatherlink.com 1.10,2013-03-30 03:18:00,
2013-03-29 22:33:00,42.5,36.0,30.23,North,5,0.0,-999.0,79,-99.99,,,0.00,weatherlink.com 1.10,2013-03-30 03:33:00,
2013-03-29 22:48:00,42.7,37.0,30.22,North,5,0.0,-999.0,79,-99.99,,,0.00,weatherlink.com 1.10,2013-03-30 03:48:00,
2013-03-29 23:03:00,43.0,36.0,30.23,North,5,0.0,-999.0,77,-99.99,,,0.00,weatherlink.com 1.10,2013-03-30 04:03:00,
2013-03-29 23:18:00,42.4,36.0,30.22,North,5,0.0,-999.0,77,-99.99,,,0.00,weatherlink.com 1.10,2013-03-30 04:18:00,
2013-03-29 23:33:00,41.8,36.0,30.22,North,5,0.0,-999.0,79,-99.99,,,0.00,weatherlink.com 1.10,2013-03-30 04:33:00,
2013-03-29 23:48:00,41.8,36.0,30.21,North,5,0.0,-999.0,79,-99.99,,,0.00,weatherlink.com 1.10,2013-03-30 04:48:00,